一网星座-0372星 (ONEWEB-0372 )

导读 | 星芒AI

ONEWE-0372 是 OneWeb 卫星通信星座计划中的一颗低轨通信卫星,旨在为全球提供高速互联网服务。该卫星由空客防务与航天公司制造,采用 OneWeb 标准化卫星平台,具备高容量通信载荷,支持极地轨道覆盖,以填补传统卫星网络在高纬度地区的空白。该星座项目由多家国际投资方支持,致力于为偏远地区提供稳定、低成本的宽带连接。ONEWE-0372 的发射和运行有助于扩大全球数字接入,推动远程教育、医疗和经济发展。

基本信息
目录编号:
49298
目录名称:
ONEWEB-0372
国际标识:
2021-090V
轨道中心:
EARTH
卫星名称:
一网星座-0372星
卫星全名:
一网星座-0372星 (ONEWEB-0372 )
卫星状态:
在轨 (已飞行1523 天)
发射日期:
2021-10-14 UTC
国别 :
英国 (GB)
星等 :
--
轨道信息
数据来源 国际轨道数据 AOE轨道数据
星历时间 2025-12-15T06:05:59+0800
20小时前
查看轨道信息
2025-12-10T07:00:00+0800
5天前
查看轨道信息
半长轴 7559.917km 7559.928km
偏心率 0.000195 0.0002122
轨道倾角 87.920° 87.917°
近地点辐角 79.971° 94.716°
升交点赤经 311.189° 312.175°
平近点角 280.164° 83.456°
近地点 1180.307km 1180.188km
远地点 1183.257km 1183.398km
周期 109.027分钟 109.028分钟
每日圈数 13.207701 13.207674
详细信息
平衡模式:
三轴稳定
覆盖范围:
全球
运营商:
一网卫星公司
运营商所在国:
英国
制造商(研发单位):
一网卫星公司
制造商所在国:
英国
使用方式:
暂无
卫星简介
OneWeb卫星网络由648颗重约125公斤的微型卫星组成,运行在1200公里的轨道上。 每颗卫星都能够提供至少每秒8千兆位的吞吐量,以使用其高吞吐量的Ku频段有效载荷为家庭和移动平台提供互联网接入。该卫星仍在工作。
2D轨道图
3D轨道图
轨道高度分析图
轨道倾角分析图
轨道综合分析图
查看轨道综合分析图